Location: ????????
(55.4000°N, 39.1167°E)
Time: 09:37:45
(UTC+00:00)

Cosmos 1766 - Pass Details

Date: 19 May 2025
Orbit: 443 x 458 km, 82.5° (Epoch: 12 June)

Event Time Altitude Azimuth Distance (km) Brightness Sun altitude
Rises 19:50:30 0° 351° (N) 2,469 8.5 -12.3°
Reaches altitude 10° 19:52:37 10° 356° (N) 1,589 7.0 -12.4°
Maximum altitude 19:56:01 54° 75° (ENE) 552 3.3 -12.6°
Enters shadow 19:58:02 22° 146° (SE) 1,041 4.1 -12.6°
